[[{"header":{"parameterUnit":"m.s-1","parameterCategory":1,"la1":30.2991,"la2":30.254,"lo1":-89.0895,"lo2":-89.0444,"dy":0.0017,"dx":0.0017,"nx":28,"ny":28,"refTime":"2024-08-27T09:00:00:Z","depth":0,"parameterNumber":2,"parameterNumberName":"U-component_of_WINDS"},"data":[0,0,0,0,0,0,0,0,0,0,0,0,0,0,0,0,0,0,0,0,0,0,0,0,0,0,0,0,0,0,0,0,0,0,0,0,0,0,0,0,0,0,0,0,0,0,0,0,0,0,0,0,0,0,0,0,0,0,1.4217,1.4217,0,1.4219,1.4219,1.4219,1.4239,1.424,1.424,1.4241,1.424,1.4239,1.4238,0,0,0,0,0,0,0,0,0,0,0,0,0,1.423,1.4229,1.4217,1.4217,1.4217,1.4219,1.4219,1.4219,1.4239,1.424,1.424,1.4241,1.424,1.4239,1.4238,0,0,0,0,0,0,0,0,0,0,0,0,0,1.4227,1.4229,1.4217,1.4228,1.4229,1.4219,1.4219,1.4219,1.4239,1.424,1.4241,1.4241,1.424,1.4239,1.4238,1.4218,0,0,1.4236,1.4236,0,0,0,0,0,0,0,0,1.4227,1.4227,1.4226,1.4227,1.4228,1.423,1.4223,1.4218,1.4239,1.4235,1.4241,1.4242,1.4235,1.4235,1.4234,1.4218,1.4218,1.4236,1.4235,1.4235,1.4235,0,0,0,0,0,0,0,1.4227,1.4227,1.4218,1.4226,1.4227,1.4232,1.4232,1.4222,1.4231,1.4235,1.4237,1.4237,1.4236,1.4234,1.4234,1.4218,1.4236,1.4235,1.4235,1.4234,1.4183,1.4182,0,0,0,0,0,0,1.4226,1.4227,1.4218,1.4218,1.423,1.4231,1.4231,1.4228,1.4231,1.4232,1.4236,1.4238,1.4235,1.4235,1.4234,1.4208,1.4235,1.4234,1.4234,1.4184,1.4183,1.4182,0,0,0,0,0,0,1.4227,1.4225,1.4218,1.4223,1.4222,1.423,1.4226,1.4228,1.4226,1.4232,1.4233,1.4233,1.4236,1.4235,1.4221,1.4209,1.4234,1.4233,1.4185,1.4184,1.4183,1.4158,0,0,0,0,0,0,1.4227,1.4225,1.4218,1.4222,1.4222,1.4206,1.4226,1.4227,1.4225,1.4227,1.4229,1.423,1.4236,1.4222,1.4221,1.4208,1.4233,1.4186,1.4185,1.4183,1.416,1.4156,1.4153,0,0,0,0,0,1.4227,1.4211,1.4218,1.4216,1.4213,1.4205,1.4205,1.4213,1.4224,1.4216,1.422,1.423,1.4211,1.4221,1.4219,1.4206,1.4187,1.4185,1.4183,1.4162,1.4157,1.4153,0,0,0,0,0,0,1.4204,1.4212,1.4219,1.4204,1.4204,1.4209,1.4199,1.4208,1.4205,1.4207,1.4217,1.4217,1.4202,1.4203,1.4214,1.4185,1.4201,1.4198,1.4185,1.418,1.4177,1.4176,1.4232,0,0,0,0,0,1.4197,1.4191,1.4198,1.4184,1.4183,1.4191,1.4188,1.4195,1.4195,1.4195,1.4198,1.4196,1.419,1.4186,1.418,1.4161,1.4161,1.4151,1.4147,1.4144,1.4141,1.4129,1.4125,1.4176,1.4176,1.4176,0,0,1.4183,1.4186,1.4182,1.4179,1.418,1.4172,1.4191,1.4183,1.4177,1.4194,1.4181,1.4183,1.4182,1.4165,1.4158,1.4166,1.4127,1.4142,1.4139,1.4138,1.4127,1.4122,1.4118,1.4174,1.4175,1.4175,0,0,1.4152,1.4155,1.4143,1.4143,1.4145,1.415,1.4147,1.4151,1.4153,1.4141,1.4153,1.4146,1.4135,1.4134,1.4132,1.4101,1.4109,1.4099,1.4079,1.4067,1.4063,1.406,1.4047,1.4042,1.4097,1.4097,1.4097,0,1.4133,1.4123,1.4135,1.4125,1.4123,1.414,1.4127,1.4126,1.4126,1.4123,1.4132,1.4119,1.412,1.4102,1.4095,1.4093,1.4089,1.4098,1.4063,1.406,1.4057,1.4044,1.404,1.4095,1.4095,1.4096,1.4096,0,1.4099,1.4092,1.4082,1.4082,1.4079,1.4068,1.4077,1.4072,1.408,1.4084,1.407,1.4072,1.4067,1.4064,1.4071,1.4047,1.4051,1.4062,1.4077,1.405,1.4039,1.4034,1.4093,1.4094,1.4094,1.4094,0,0,1.4052,1.4059,1.4055,1.4054,1.4057,1.4052,1.4041,1.4037,1.4032,1.4031,1.4021,1.4012,1.4022,1.4019,1.4026,1.4017,1.399,1.4028,1.4028,1.4019,1.3961,1.3952,1.3946,1.3996,1.3996,1.3995,1.3961,0,1.4021,1.4004,1.4014,1.3995,1.3987,1.4003,1.3993,1.3994,1.3997,1.3991,1.3995,1.3988,1.4002,1.4001,1.3992,1.3995,1.3978,1.3998,1.3985,1.3985,1.3983,1.394,1.393,1.3898,1.3956,1.3956,1.3955,0,1.3982,1.398,1.396,1.3964,1.3961,1.3953,1.3949,1.3944,1.3944,1.3947,1.3945,1.3954,1.3943,1.3959,1.3943,1.3956,1.3952,1.3952,1.3951,1.3949,1.3967,1.3934,1.3888,1.3882,1.3949,1.3949,1.395,0,1.3947,1.394,1.3926,1.3926,1.3931,1.3924,1.3925,1.3927,1.3923,1.392,1.3918,1.3913,1.391,1.3906,1.3913,1.3925,1.3894,1.3912,1.3895,1.3895,1.3886,1.3886,1.3836,1.3887,1.3887,1.3887,1.3887,0,1.391,1.3896,1.3911,1.3902,1.3887,1.3899,1.3884,1.3887,1.3888,1.3879,1.3893,1.3885,1.3896,1.3888,1.3894,1.3878,1.3878,1.3879,1.388,1.3876,1.3875,1.3871,1.3873,1.3886,1.3886,1.3887,1.3887,0,1.3867,1.3876,1.3863,1.3869,1.387,1.3858,1.3863,1.3855,1.386,1.3849,1.3847,1.3855,1.3847,1.3854,1.3846,1.385,1.3828,1.3834,1.3828,1.3829,1.381,1.3811,1.3754,1.3746,1.3805,1.3804,1.3804,0,1.3841,1.3831,1.3837,1.3832,1.3833,1.3826,1.3823,1.3835,1.3831,1.383,1.3822,1.3815,1.381,1.3795,1.3799,1.3793,1.3797,1.3778,1.3796,1.3792,1.3794,1.3793,1.3791,1.3773,1.3772,1.3772,1.3771,0,1.3794,1.3799,1.3795,1.3791,1.3787,1.3785,1.3784,1.3779,1.3792,1.3786,1.3778,1.3774,1.3766,1.3758,1.3753,1.3754,1.3763,1.3766,1.3761,1.3756,1.3752,1.3751,1.3815,1.3766,1.3767,1.3767,1.3767,1.3768,1.3757,1.3749,1.3751,1.3745,1.3746,1.3744,1.3737,1.3742,1.3735,1.373,1.3738,1.3727,1.3727,1.3722,1.3721,1.3712,1.372,1.3714,1.3712,1.3709,1.3706,1.3755,1.3712,1.3712,1.3712,1.3712,1.3712,0,1.3709,1.3711,1.3706,1.3704,1.3699,1.3711,1.3711,1.3705,1.3696,1.3696,1.3691,1.3681,1.3674,1.3678,1.3671,1.3663,1.3667,1.366,1.366,1.3659,1.37,1.3704,1.3657,1.3657,1.3657,1.3657,1.3657,1.3657,1.3683,1.3668,1.3674,1.366,1.3662,1.3653,1.3651,1.3649,1.3649,1.3638,1.3632,1.3636,1.3637,1.363,1.3623,1.3625,1.362,1.3611,1.3614,1.3651,1.3657,1.3662,1.3665,1.3611,1.3611,1.3573,1.3573,1.3573]},{"header":{"parameterUnit":"m.s-1","parameterCategory":1,"la1":30.2991,"la2":30.254,"lo1":-89.0895,"lo2":-89.0444,"dy":0.0017,"dx":0.0017,"nx":28,"ny":28,"refTime":"2024-08-27T09:00:00:Z","depth":0,"parameterNumber":3,"parameterNumberName":"V-component_of_WINDS"},"data":[0,0,0,0,0,0,0,0,0,0,0,0,0,0,0,0,0,0,0,0,0,0,0,0,0,0,0,0,0,0,0,0,0,0,0,0,0,0,0,0,0,0,0,0,0,0,0,0,0,0,0,0,0,0,0,0,0,0,-0.1792,-0.1792,0,-0.1815,-0.1816,-0.1816,-0.1835,-0.1835,-0.1835,-0.1835,-0.186,-0.186,-0.1861,0,0,0,0,0,0,0,0,0,0,0,0,0,-0.1765,-0.1765,-0.1792,-0.1792,-0.1792,-0.1815,-0.1816,-0.1816,-0.1835,-0.1835,-0.1835,-0.1835,-0.186,-0.186,-0.1861,0,0,0,0,0,0,0,0,0,0,0,0,0,-0.1781,-0.1766,-0.1792,-0.1805,-0.1806,-0.1815,-0.1816,-0.1816,-0.1834,-0.1835,-0.1835,-0.1835,-0.186,-0.186,-0.1861,-0.186,0,0,-0.1863,-0.1863,0,0,0,0,0,0,0,0,-0.178,-0.1782,-0.1802,-0.1804,-0.1805,-0.1822,-0.1815,-0.1831,-0.1834,-0.1824,-0.1835,-0.1835,-0.1847,-0.1849,-0.1853,-0.1861,-0.1862,-0.1863,-0.1864,-0.1864,-0.1864,0,0,0,0,0,0,0,-0.1779,-0.1781,-0.1801,-0.1803,-0.1804,-0.181,-0.1812,-0.1818,-0.1834,-0.1825,-0.1826,-0.1828,-0.1848,-0.1852,-0.1853,-0.1862,-0.1863,-0.1864,-0.1864,-0.1865,-0.1872,-0.1872,0,0,0,0,0,0,-0.1776,-0.178,-0.18,-0.1802,-0.1793,-0.181,-0.1813,-0.1817,-0.1834,-0.1836,-0.1828,-0.1829,-0.1851,-0.1853,-0.1854,-0.1855,-0.1864,-0.1865,-0.1865,-0.1872,-0.1872,-0.1872,0,0,0,0,0,0,-0.1775,-0.1778,-0.18,-0.1792,-0.1795,-0.181,-0.1814,-0.1817,-0.1821,-0.1836,-0.1839,-0.1829,-0.1851,-0.1853,-0.1859,-0.1856,-0.1865,-0.1866,-0.1873,-0.1872,-0.1872,-0.1855,0,0,0,0,0,0,-0.1774,-0.1777,-0.1776,-0.1791,-0.1795,-0.1803,-0.1814,-0.1817,-0.1822,-0.1824,-0.1838,-0.1841,-0.1851,-0.1857,-0.1859,-0.1857,-0.1866,-0.1873,-0.1873,-0.1872,-0.1856,-0.1855,-0.1853,0,0,0,0,0,-0.1773,-0.1771,-0.1776,-0.1779,-0.1794,-0.1802,-0.1805,-0.1816,-0.1822,-0.1821,-0.1832,-0.184,-0.1856,-0.1858,-0.186,-0.1858,-0.1873,-0.1873,-0.1872,-0.1857,-0.1855,-0.1853,0,0,0,0,0,0,-0.1755,-0.1773,-0.1779,-0.1781,-0.179,-0.1806,-0.1805,-0.1814,-0.1822,-0.1823,-0.1838,-0.1841,-0.1845,-0.1852,-0.1853,-0.1859,-0.1866,-0.1866,-0.1853,-0.1852,-0.185,-0.1848,-0.1867,0,0,0,0,0,-0.1751,-0.1756,-0.1772,-0.1772,-0.1776,-0.179,-0.1794,-0.1802,-0.1812,-0.1816,-0.1827,-0.1836,-0.1844,-0.1848,-0.1856,-0.1858,-0.1862,-0.1858,-0.1856,-0.1855,-0.1854,-0.1857,-0.1856,-0.187,-0.187,-0.187,0,0,-0.1744,-0.1754,-0.1756,-0.1769,-0.1776,-0.1782,-0.1793,-0.1798,-0.1802,-0.1817,-0.1823,-0.1831,-0.1843,-0.1846,-0.1849,-0.1853,-0.1851,-0.1854,-0.1853,-0.1853,-0.1856,-0.1855,-0.1854,-0.187,-0.187,-0.187,0,0,-0.1732,-0.174,-0.1742,-0.175,-0.1761,-0.1771,-0.1771,-0.1786,-0.1792,-0.1797,-0.1809,-0.1815,-0.1827,-0.1835,-0.1841,-0.1834,-0.1842,-0.1836,-0.1827,-0.183,-0.1829,-0.1828,-0.1826,-0.1825,-0.1835,-0.1835,-0.1835,0,-0.1721,-0.1729,-0.1742,-0.1746,-0.1751,-0.1765,-0.1768,-0.1775,-0.1788,-0.1792,-0.1797,-0.1812,-0.1821,-0.1828,-0.1826,-0.183,-0.1832,-0.1834,-0.1828,-0.1827,-0.1826,-0.1824,-0.1824,-0.1834,-0.1834,-0.1835,-0.1835,0,-0.1715,-0.172,-0.172,-0.1733,-0.1739,-0.1742,-0.1756,-0.176,-0.1768,-0.1777,-0.1784,-0.1795,-0.1806,-0.1808,-0.1816,-0.1816,-0.1818,-0.1825,-0.1832,-0.1824,-0.1822,-0.1822,-0.1833,-0.1833,-0.1834,-0.1834,0,0,-0.1692,-0.1713,-0.1712,-0.1719,-0.1734,-0.1738,-0.1742,-0.1752,-0.1756,-0.1766,-0.177,-0.178,-0.1787,-0.1793,-0.1803,-0.1805,-0.1799,-0.1812,-0.1812,-0.1809,-0.1801,-0.1796,-0.1795,-0.1805,-0.1805,-0.1805,-0.18,0,-0.1683,-0.1691,-0.1703,-0.1707,-0.1713,-0.1727,-0.1731,-0.1741,-0.175,-0.1756,-0.1766,-0.1774,-0.1782,-0.1786,-0.1788,-0.1799,-0.1798,-0.18,-0.181,-0.1811,-0.1807,-0.1794,-0.1789,-0.1783,-0.18,-0.18,-0.18,0,-0.1674,-0.1682,-0.1687,-0.1702,-0.1705,-0.1708,-0.1719,-0.1725,-0.1736,-0.1743,-0.1751,-0.1761,-0.1767,-0.1774,-0.1783,-0.1784,-0.1789,-0.1796,-0.1796,-0.1797,-0.1804,-0.1796,-0.1782,-0.1781,-0.1799,-0.1799,-0.1799,0,-0.1657,-0.167,-0.1675,-0.168,-0.1697,-0.1699,-0.1707,-0.1719,-0.1725,-0.1734,-0.1738,-0.1748,-0.1754,-0.1762,-0.1776,-0.1779,-0.1784,-0.1791,-0.179,-0.1789,-0.179,-0.179,-0.1777,-0.1793,-0.1793,-0.1793,-0.1793,0,-0.1646,-0.1649,-0.1668,-0.1671,-0.1674,-0.1688,-0.1692,-0.1701,-0.1711,-0.1717,-0.173,-0.1735,-0.1752,-0.1759,-0.1769,-0.1776,-0.1778,-0.1784,-0.1787,-0.1783,-0.1783,-0.1787,-0.1788,-0.1793,-0.1793,-0.1793,-0.1793,0,-0.1628,-0.1641,-0.1647,-0.1663,-0.1668,-0.167,-0.1684,-0.1688,-0.1698,-0.1705,-0.1707,-0.1723,-0.1732,-0.1746,-0.176,-0.1767,-0.1772,-0.1776,-0.1768,-0.177,-0.1767,-0.1768,-0.1757,-0.1757,-0.1772,-0.1772,-0.1772,0,-0.1621,-0.1623,-0.1639,-0.1644,-0.1651,-0.1658,-0.1664,-0.1678,-0.1684,-0.1698,-0.17,-0.1711,-0.172,-0.1734,-0.1748,-0.1758,-0.1763,-0.1759,-0.1765,-0.1761,-0.1764,-0.1764,-0.1764,-0.1757,-0.1757,-0.1757,-0.1757,0,-0.1606,-0.1612,-0.162,-0.163,-0.1636,-0.1645,-0.1655,-0.1658,-0.1675,-0.1681,-0.169,-0.1697,-0.1711,-0.1722,-0.1734,-0.1743,-0.1753,-0.1755,-0.1755,-0.1751,-0.1746,-0.175,-0.1764,-0.1755,-0.1755,-0.1755,-0.1755,-0.1755,-0.1593,-0.1596,-0.1608,-0.1617,-0.1625,-0.1634,-0.1639,-0.1649,-0.1657,-0.167,-0.1678,-0.1687,-0.1701,-0.1719,-0.1727,-0.1735,-0.1739,-0.1739,-0.174,-0.1739,-0.1738,-0.1745,-0.1737,-0.1737,-0.1738,-0.1738,-0.1738,0,-0.1579,-0.1588,-0.1595,-0.1608,-0.1615,-0.1624,-0.1635,-0.164,-0.1648,-0.1659,-0.1668,-0.168,-0.169,-0.1704,-0.1716,-0.172,-0.1725,-0.1723,-0.1723,-0.1725,-0.1734,-0.1732,-0.1719,-0.1719,-0.1719,-0.1719,-0.1719,-0.1719,-0.1572,-0.1578,-0.1586,-0.1597,-0.1606,-0.1614,-0.162,-0.1629,-0.1638,-0.165,-0.1659,-0.1668,-0.1681,-0.1694,-0.1704,-0.1708,-0.1712,-0.1709,-0.1714,-0.1722,-0.1724,-0.1726,-0.1724,-0.1709,-0.1709,-0.1704,-0.1704,-0.1704]}]]